RH
28 39 35 37 38 39 43 48 45 33 45 74 68 53 53 42 50 52 61 80 87 86 65 67 62 58 59 53 52 40 35 50 64 79 90 96 93 78 76 68 70 68 69 68 69 70 65 58 48 44 43 43 43 41
46 58 45 61 42 49 47 47 55 56 37 68 77 67 54 55 64 78 68 70 78 88 84 77 60 61 61 55 54 50 48 49 67 87 97 98 95 83 74 78 72 76 70 70 66 64 66 63 60 58 52 49 48 46
59 70 69 62 47 60 67 64 57 58 56 78 85 72 69 62 64 65 74 81 78 77 67 58 63 65 64 64 66 61 53 45 54 73 86 97 95 98 96 88 76 85 81 78 81 80 76 73 68 65 61 56 54 53
66 87 79 67 57 64 81 67 53 62 59 85 92 83 62 51 57 68 74 74 85 79 68 53 62 66 70 61 62 58 54 51 52 55 73 82 86 93 95 97 97 97 98 97 96 93 90 85 81 76 72 71 70 68
83 86 87 80 64 60 87 84 56 61 75 95 92 71 55 57 77 75 64 60 69 79 75 64 58 64 57 73 64 61 64 65 59 61 61 64 78 87 97 97 97 97 97 98 97 97 94 93 92 90 85 85 83 81
78 90 93 91 68 59 65 92 76 73 97 93 77 60 55 55 53 43 48 65 77 90 88 72 61 49 69 86 76 72 75 74 71 71 64 73 65 91 97 97 97 97 97 98 97 97 98 98 96 98 95 95 96 94
62 77 89 93 77 66 59 72 94 93 92 70 62 60 56 45 45 49 61 73 82 82 79 69 62 82 89 87 73 76 85 96 95 90 82 79 76 79 97 98 98 98 97 97 98 97 97 98 96 97 98 97 97 97
68 73 88 88 81 70 61 53 88 90 75 72 69 60 48 45 46 58 81 89 84 78 75 87 95 84 86 80 77 88 98 97 97 98 97 94 85 80 82 96 98 99 97 97 97 97 97 98 97 97 97 97 96 97
67 79 91 86 76 58 49 61 96 89 79 73 62 51 49 52 62 72 75 77 78 81 88 93 91 87 71 77 80 96 94 95 95 98 98 94 97 96 92 88 90 91 95 98 98 98 98 97 97 98 97 97 97 97
79 84 85 64 55 61 79 99 87 81 72 57 47 50 58 65 76 86 98 96 97 99 93 92 89 88 80 75 81 91 96 95 96 98 94 98 99 99 99 99 97 98 94 98 98 97 98 97 97 97 97 97 96 94
84 88 64 71 84 88 94 94 81 61 51 52 54 58 73 85 90 91 94 97 97 96 93 94 93 90 91 87 90 98 97 94 96 95 92 98 99 99 99 99 98 98 98 98 98 98 97 97 96 94 92 90 87 83
66 59 77 85 77 76 67 58 54 53 53 55 61 73 82 84 83 86 94 92 95 97 96 96 91 89 98 95 98 98 98 95 98 95 93 98 99 99 99 99 98 98 98 98 97 95 93 92 90 88 85 83 79 75
72 79 74 67 58 52 52 56 60 60 58 61 70 79 84 78 83 93 97 94 97 98 95 95 92 91 92 96 98 97 95 98 92 94 98 99 99 99 99 99 98 95 92 91 90 89 87 85 83 80 77 75 73 69
49 47 47 50 55 60 63 63 60 57 60 65 71 82 83 94 96 98 99 98 95 94 94 92 88 86 85 92 96 95 97 89 95 97 99 99 99 99 99 97 94 91 88 86 84 81 79 77 75 73 70 67 64 61
49 53 54 54 48 48 52 55 57 55 58 67 76 90 95 98 97 97 93 91 92 92 93 91 88 79 85 87 93 90 90 99 99 99 99 99 99 99 95 92 89 86 83 79 77 74 73 71 68 66 64 62 60 56
49 49 49 48 47 43 45 45 48 49 61 72 86 95 96 95 91 88 84 84 91 94 93 87 86 83 89 90 91 99 94 99 99 99 99 99 98 94 90 86 83 80 76 73 70 68 66 64 62 60 58 55 52 49
48 46 45 46 48 46 44 46 48 50 63 76 87 92 92 90 85 83 81 76 76 80 84 82 88 94 86 90 98 98 99 99 99 99 98 96 92 87 83 79 76 74 71 69 68 66 64 62 60 57 54 52 51 50
47 47 45 46 45 48 51 48 53 65 77 85 87 88 82 76 74 70 67 64 61 63 63 68 68 79 86 90 91 92 92 92 92 93 91 89 86 84 81 80 77 76 73 72 71 70 68 66 64 62 60 59 59 60
43 44 44 44 46 49 54 57 64 73 80 79 79 81 78 75 72 69 66 62 59 60 64 70 80 89 91 93 93 94 94 94 93 93 92 91 91 90 90 89 87 85 83 82 81 81 80 77 75 73 71 68 66 67
40 41 42 43 44 50 56 67 71 74 78 78 78 79 77 76 75 74 74 71 66 65 74 84 91 94 95 96 96 96 96 93 89 90 93 94 95 95 94 94 93 93 93 91 87 85 83 83 82 79 76 78 77 74
43 43 44 45 49 53 62 71 73 76 78 79 79 81 82 81 81 80 81 75 72 81 87 92 95 96 97 98 97 96 96 88 83 81 82 83 84 83 82 82 83 84 89 91 90 87 87 88 87 85 83 81 80 78
50 48 48 50 54 60 69 75 80 80 82 81 85 84 86 89 91 90 87 84 88 93 96 97 97 97 97 97 97 97 95 88 81 76 73 72 71 73 73 73 73 75 76 78 79 82 85 86 87 87 87 85 83 81
56 55 55 56 59 66 75 81 82 82 85 88 89 92 93 96 95 92 92 90 91 93 93 92 92 92 92 92 94 94 91 82 79 77 75 71 70 69 69 69 68 67 67 69 73 75 77 80 82 84 85 85 85 85
50 54 57 62 69 76 77 79 82 83 84 86 88 89 89 88 86 83 85 86 86 85 83 79 78 78 80 81 82 81 77 72 71 71 70 69 67 67 68 69 69 68 65 63 60 64 72 76 79 82 85 86 87 89
44 54 59 62 66 70 72 73 73 74 79 80 81 82 84 85 85 85 85 85 82 81 76 77 78 80 81 80 81 82 82 81 80 80 81 80 79 76 75 75 74 72 69 66 63 57 56 66 73 76 80 83 86 88
48 54 57 60 63 66 65 68 68 70 72 74 76 77 79 79 81 84 85 83 82 80 81 83 84 84 84 84 83 82 82 83 85 86 87 87 87 88 89 88 88 86 83 77 72 66 58 55 60 68 72 77 82 87
51 54 55 57 58 60 62 62 65 66 68 69 72 74 76 79 82 84 86 86 84 88 91 92 93 95 95 95 95 94 93 94 94 95 96 96 95 95 95 94 94 94 95 93 86 79 70 61 60 61 70 75 81 85
51 55 57 57 61 62 63 66 68 71 74 76 79 81 83 85 87 88 89 89 94 98 99 98 97 97 96 95 94 93 92 91 92 94 98 98 99 98 98 96 96 97 97 95 93 89 82 74 66 60 60 73 80 85
52 53 55 58 60 62 65 68 73 76 79 82 85 89 92 94 95 95 96 98 99 99 99 99 97 98 99 97 94 94 92 91 90 90 91 91 92 91 92 92 94 95 95 96 95 94 91 84 74 63 58 62 77 84
49 50 53 56 60 63 68 72 78 81 84 86 89 92 94 96 97 99 99 99 99 100 100 99 98 99 98 96 96 95 94 93 91 90 90 92 93 92 90 92 94 94 96 98 98 98 97 89 79 69 62 61 69 82
57 61 65 67 71 76 80 82 82 83 86 90 93 97 99 99 99 99 99 99 99 99 99 98 99 100 99 97 95 94 95 96 93 92 91 92 90 90 92 94 94 97 99 100 99 99 96 90 79 71 65 61 62 78
66 70 75 76 75 76 78 78 80 85 89 94 98 99 99 99 99 99 98 97 97 99 100 99 99 98 99 98 97 96 96 95 94 95 94 92 90 92 94 96 98 99 100 100 99 97 92 85 79 74 67 64 63 74
74 77 76 74 72 72 70 70 76 83 90 95 97 99 99 99 99 98 95 96 98 98 99 100 99 99 98 97 98 99 99 97 96 94 94 93 94 95 97 99 99 99 99 99 99 99 95 88 81 75 68 64 66 77